Change the Weather History Date:

Friday, September 13, 2013

  Actual Average Record
Temperature  
Mean Temperature 70 °F -  
Max Temperature 78 °F 79 °F 94 °F (1952)
Min Temperature 60 °F 58 °F 46 °F (1954)
Cooling Degree Days 4    
Growing Degree Days 20 (Base 50)    
Moisture  
Dew Point 64 °F    
Average Humidity 82    
Maximum Humidity 100    
Minimum Humidity 43    
Precipitation  
Precipitation 0.00 in - - ()
Sea Level Pressure  
Sea Level Pressure 29.73 in    
Wind  
Wind Speed 5 mph (WNW)    
Max Wind Speed 17 mph    
Max Gust Speed 24 mph    
Visibility 7 miles    
Events      
Averages and records for this station are not official NWS values.
T = Trace of Precipitation, MM = Missing Value Source: NWS Daily Summary

Daily Weather History Graph

Daily Weather History Graph

Search for Another Location

Airport or City:

Trip Planner

Search our weather history database for the weather conditions in past years. The results will help you decide how hot, cold, wet, or windy it might be!

Date:

Astronomy

Sep. 13, 2013 Rise Set
Actual Time 6:39 AM EDT 7:11 PM EDT
Civil Twilight 6:12 AM EDT 7:38 PM EDT
Nautical Twilight 5:41 AM EDT 8:10 PM EDT
Astronomical Twilight 5:08 AM EDT 8:42 PM EDT
Moon 2:57 PM EDT (9/13) 12:08 AM EDT (9/13)
Length of Visible Light 13h 25m
Length of Day
12h 31m
First Quarter, 61% of the Moon is Illuminated
Sep 13
First Quarter
Sep 19
Full
Sep 26
Last Quarter
Oct 4
New
Oct 11
First Quarter

Hourly Weather History & Observations

Time (EDT) Temp. Dew Point Humidity Pressure Visibility Wind Dir Wind Speed Gust Speed Precip Events Conditions
12:44 AM 71.6 °F 69.8 °F 94% 29.71 in 3.0 mi Calm Calm - N/A   Clear
12:54 AM 71.1 °F 70.0 °F 96% 29.71 in 3.0 mi Calm Calm - N/A   Clear
1:16 AM 71.6 °F 71.6 °F 100% 29.70 in 3.0 mi Calm Calm - N/A   Partly Cloudy
1:54 AM 71.1 °F 71.1 °F 100% 29.70 in 4.0 mi WSW 5.8 mph - N/A   Mostly Cloudy
2:03 AM 71.6 °F 71.6 °F 100% 29.70 in 4.0 mi WSW 5.8 mph - N/A   Overcast
2:32 AM 71.6 °F 69.8 °F 94% 29.69 in 4.0 mi WSW 3.5 mph - N/A   Scattered Clouds
2:54 AM 71.1 °F 70.0 °F 96% 29.68 in 4.0 mi WSW 3.5 mph - N/A   Mostly Cloudy
3:18 AM 71.6 °F 69.8 °F 94% 29.68 in 4.0 mi Calm Calm - N/A   Mostly Cloudy
3:54 AM 71.1 °F 70.0 °F 96% 29.67 in 5.0 mi West 4.6 mph - N/A   Mostly Cloudy
4:04 AM 71.6 °F 69.8 °F 94% 29.68 in 5.0 mi West 5.8 mph - N/A   Mostly Cloudy
4:12 AM 69.8 °F 69.8 °F 100% 29.68 in 6.0 mi West 5.8 mph - N/A   Mostly Cloudy
4:51 AM 69.8 °F 69.8 °F 100% 29.68 in 5.0 mi West 3.5 mph - N/A   Mostly Cloudy
4:54 AM 70.0 °F 70.0 °F 100% 29.68 in 4.0 mi West 4.6 mph - N/A   Mostly Cloudy
5:29 AM 69.8 °F 69.8 °F 100% 29.68 in 3.0 mi West 4.6 mph - N/A   Mostly Cloudy
5:54 AM 70.0 °F 69.1 °F 97% 29.68 in 3.0 mi West 4.6 mph - N/A   Mostly Cloudy
6:54 AM 68.0 °F 66.9 °F 96% 29.69 in 2.0 mi West 3.5 mph - N/A   Clear
7:20 AM 69.8 °F 66.2 °F 88% 29.70 in 4.0 mi NW 8.1 mph - N/A   Partly Cloudy
7:54 AM 69.1 °F 66.9 °F 93% 29.70 in 4.0 mi WNW 5.8 mph - N/A   Clear
8:54 AM 70.0 °F 66.9 °F 90% 29.70 in 4.0 mi NW 5.8 mph - N/A   Partly Cloudy
9:54 AM 71.1 °F 66.0 °F 84% 29.72 in 9.0 mi NNW 8.1 mph - N/A   Scattered Clouds
10:14 AM 71.6 °F 66.2 °F 83% 29.73 in 9.0 mi NW 6.9 mph - N/A   Mostly Cloudy
10:54 AM 71.1 °F 64.0 °F 78% 29.73 in 10.0 mi NW 11.5 mph - N/A   Mostly Cloudy
11:01 AM 71.6 °F 64.4 °F 78% 29.74 in 10.0 mi NW 9.2 mph - N/A   Mostly Cloudy
11:28 AM 71.6 °F 62.6 °F 73% 29.74 in 10.0 mi NW 11.5 mph - N/A   Overcast
11:54 AM 70.0 °F 60.1 °F 71% 29.74 in 10.0 mi NNW 12.7 mph 20.7 mph N/A   Scattered Clouds
12:54 PM 72.0 °F 59.0 °F 64% 29.74 in 10.0 mi NNW 13.8 mph 21.9 mph N/A   Mostly Cloudy
1:54 PM 75.0 °F 59.0 °F 57% 29.73 in 10.0 mi WNW 15.0 mph 23.0 mph N/A   Scattered Clouds
2:54 PM 77.0 °F 55.9 °F 48% 29.72 in 10.0 mi WNW 17.3 mph 24.2 mph N/A   Partly Cloudy
3:54 PM 78.1 °F 54.0 °F 43% 29.72 in 10.0 mi WNW 12.7 mph 21.9 mph N/A   Clear
4:54 PM 73.9 °F 54.0 °F 50% 29.73 in 10.0 mi NW 8.1 mph - N/A   Partly Cloudy
5:54 PM 73.9 °F 55.0 °F 52% 29.75 in 10.0 mi NW 10.4 mph - N/A   Partly Cloudy
6:54 PM 71.1 °F 52.0 °F 51% 29.77 in 10.0 mi NW 6.9 mph - N/A   Mostly Cloudy
7:54 PM 66.9 °F 54.0 °F 63% 29.81 in 10.0 mi NW 4.6 mph - N/A   Clear
8:54 PM 63.0 °F 55.0 °F 75% 29.83 in 10.0 mi NNW 3.5 mph - N/A   Clear
9:54 PM 63.0 °F 53.1 °F 70% 29.85 in 10.0 mi Calm Calm - N/A   Clear
10:54 PM 61.0 °F 53.1 °F 75% 29.87 in 10.0 mi NW 3.5 mph - N/A   Clear
11:54 PM 60.1 °F 52.0 °F 75% 29.88 in 10.0 mi NNW 6.9 mph - N/A   Clear